Location: ActonStarParty
(42.4766°N, 71.4538°W)
Time: 05:04:05
(UTC-04:00)

Amateur Radio Satellites - All Passes

Search period start: 30 July 2014 04:34
Search period end: 31 July 2014 04:34
Location: ActonStarParty, 42.4766°N, 71.4538°W

Satellite Date Start Highest point End Downlink Frequencies (MHz)
Time Altitude Azimuth
ISS 30 Jul 04:34:49 04:37:57 36° 25° (NNE) 04:41:06 145.800 FM
ITAMSAT 1 30 Jul 04:51:09 04:53:27 13° 302° (WNW) 04:55:46 435.822 SSB
MaSat-1 30 Jul 05:09:48 05:13:41 20° 47° (NE) 05:17:28 437.345 MHz
TMSAT-1 30 Jul 05:12:50 05:17:03 25° 296° (WNW) 05:21:15 436.925 FM
STRAND 1 30 Jul 05:14:39 05:17:33 15° 60° (ENE) 05:20:28 ?
JAS-1B 30 Jul 05:36:07 05:43:04 24° 308° (NW) 05:49:25 435.800 - 435.900 CW/SSB
AO-7 30 Jul 05:36:25 05:44:48 89° 289° (WNW) 05:53:07 29.400 - 29.500 MHz
Gurwin Techsat 1B 30 Jul 05:39:57 05:41:43 12° 303° (WNW) 05:43:29 435.225 FM
KITSAT 1 30 Jul 05:43:15 05:51:00 52° 113° (ESE) 05:58:47 435.175 FM
Uosat F 30 Jul 06:03:36 06:08:03 32° 293° (WNW) 06:12:27 435.120 FM
Hamsat 30 Jul 06:04:37 06:08:13 25° 95° (E) 06:11:50 145.90 MHz
JAS-2 30 Jul 06:06:50 06:11:22 23° 91° (E) 06:15:34 435.800 - 435.900 CW/SSB, 435.910 FM
ISS 30 Jul 06:11:34 06:14:40 35° 222° (SW) 06:17:45 145.800 FM
Saudisat 1A 30 Jul 06:40:59 06:44:38 26° 114° (ESE) 06:48:17 436.775 MHz
MaSat-1 30 Jul 06:46:18 06:51:36 71° 247° (WSW) 06:56:33 437.345 MHz
STRAND 1 30 Jul 06:50:59 06:56:07 75° 257° (WSW) 07:01:17 ?
SO-67 30 Jul 07:17:57 07:20:45 22° 95° (E) 07:23:31 435.3500 MHz FM
AO-7 30 Jul 07:30:33 07:36:31 23° 309° (NW) 07:42:29 29.400 - 29.500 MHz
KITSAT 1 30 Jul 07:39:02 07:46:36 42° 314° (NW) 07:54:12 435.175 FM
Hamsat 30 Jul 07:40:26 07:44:10 29° 291° (WNW) 07:47:54 145.90 MHz
JAS-2 30 Jul 07:51:10 07:56:51 48° 291° (WNW) 08:01:59 435.800 - 435.900 CW/SSB, 435.910 FM
PCSat 30 Jul 07:53:18 07:56:34 16° 39° (NE) 07:59:49 145.825 MHz
Saudisat 1A 30 Jul 08:19:57 08:24:03 37° 311° (NW) 08:28:12 436.775 MHz
HO-68 30 Jul 08:50:40 08:56:21 25° 93° (E) 09:02:00 435.675 MHz FM
SO-67 30 Jul 08:51:03 08:53:43 21° 291° (WNW) 08:56:23 435.3500 MHz FM
Sapphire 30 Jul 09:02:17 09:07:26 41° 52° (NE) 09:12:32 437.095 MHz 1200 baud AX-25 AFSK
PCSat 30 Jul 09:35:26 09:40:54 79° 59° (ENE) 09:46:19 145.825 MHz
KITSAT 1 30 Jul 09:40:02 09:44:35 16° 341° (NNW) 09:49:08 435.175 FM
UKube-1 30 Jul 10:00:36 10:04:56 60° 101° (ESE) 10:09:12 145.840 MHz, 145.915 MHz
HO-68 30 Jul 10:37:28 10:44:31 64° 291° (WNW) 10:51:32 435.675 MHz FM
Oscar 11 30 Jul 10:44:16 10:48:37 84° 284° (WNW) 10:52:58 145.825 FM, Beacon 2401.500 USB
Sapphire 30 Jul 10:46:00 10:50:41 30° 251° (WSW) 10:55:21 437.095 MHz 1200 baud AX-25 AFSK
FUNcube-1 30 Jul 11:09:33 11:13:44 68° 101° (ESE) 11:17:56 145.950 - 145.970 MHz USB
PCSat 30 Jul 11:20:44 11:23:35 15° 257° (WSW) 11:26:27 145.825 MHz
UKube-1 30 Jul 11:38:21 11:40:38 14° 298° (WNW) 11:42:55 145.840 MHz, 145.915 MHz
KITSAT 1 30 Jul 11:40:26 11:44:11 14° 12° (NNE) 11:47:55 435.175 FM
SO-50 30 Jul 11:40:32 11:44:24 30° 114° (ESE) 11:48:21 436.795 FM
Oscar 19 30 Jul 11:59:32 12:02:00 14° 59° (ENE) 12:04:27 437.125 CW, 437.150 USB
RS-15 30 Jul 12:25:29 12:35:30 41° 108° (ESE) 12:45:18 29.354 - 29.394 USB, Beacon 29.352 USB
Oscar 16 30 Jul 12:26:14 12:30:19 25° 64° (ENE) 12:34:24 437.025 USB, Beacon 2401.1428
HO-68 30 Jul 12:27:46 12:30:51 13° 311° (NW) 12:33:57 435.675 MHz FM
JAS-1B 30 Jul 12:39:56 12:46:44 24° 51° (NE) 12:53:50 435.800 - 435.900 CW/SSB
FUNcube-1 30 Jul 12:48:08 12:49:36 12° 298° (WNW) 12:51:04 145.950 - 145.970 MHz USB
ITAMSAT 1 30 Jul 12:50:45 12:54:24 20° 62° (ENE) 12:58:02 435.822 SSB
Uribyol 2 30 Jul 13:08:51 13:13:17 29° 66° (ENE) 13:17:42 436.500 FM
AO-27 30 Jul 13:09:25 13:13:50 29° 65° (ENE) 13:18:16 436.795 MHz FM
TMSAT-1 30 Jul 13:18:45 13:19:57 11° 56° (NE) 13:21:09 436.925 FM
SO-50 30 Jul 13:20:49 13:24:53 33° 313° (NW) 13:29:03 436.795 FM
UOSAT-12 30 Jul 13:33:00 13:37:01 30° 114° (ESE) 13:41:06 437.025 FM, 437.400 FM
Oscar 19 30 Jul 13:35:31 13:40:38 83° 256° (WSW) 13:45:47 437.125 CW, 437.150 USB
KITSAT 1 30 Jul 13:35:38 13:42:42 32° 41° (NE) 13:49:43 435.175 FM
AO-Echo 30 Jul 13:39:48 13:44:57 54° 71° (ENE) 13:50:07 ?
Gurwin Techsat 1B 30 Jul 13:40:43 13:44:50 24° 64° (ENE) 13:48:58 435.225 FM
Oscar 16 30 Jul 14:04:34 14:09:25 43° 261° (W) 14:14:18 437.025 USB, Beacon 2401.1428
JAS-1B 30 Jul 14:26:40 14:35:40 81° 72° (ENE) 14:45:37 435.800 - 435.900 CW/SSB
ITAMSAT 1 30 Jul 14:28:19 14:33:26 58° 259° (W) 14:38:36 435.822 SSB
RS-15 30 Jul 14:36:25 14:47:21 62° 311° (NW) 14:58:12 29.354 - 29.394 USB, Beacon 29.352 USB
AO-7 30 Jul 14:44:57 14:51:57 31° 56° (NE) 14:58:57 29.400 - 29.500 MHz
Uribyol 2 30 Jul 14:47:52 14:52:37 36° 263° (W) 14:57:25 436.500 FM
AO-27 30 Jul 14:48:23 14:53:12 37° 262° (W) 14:58:03 436.795 MHz FM
TMSAT-1 30 Jul 14:53:40 14:58:57 74° 74° (ENE) 15:04:15 436.925 FM
Saudisat 1A 30 Jul 15:06:36 15:10:26 28° 46° (NE) 15:14:14 436.775 MHz
UOSAT-12 30 Jul 15:12:51 15:17:05 35° 313° (NW) 15:21:25 437.025 FM, 437.400 FM
Gurwin Techsat 1B 30 Jul 15:19:22 15:24:29 48° 261° (W) 15:29:38 435.225 FM
AO-Echo 30 Jul 15:20:07 15:24:00 20° 268° (W) 15:27:54 ?
KITSAT 1 30 Jul 15:30:46 15:38:50 74° 243° (WSW) 15:46:50 435.175 FM
Uosat F 30 Jul 15:38:36 15:43:24 46° 70° (ENE) 15:48:13 435.120 FM
JAS-1B 30 Jul 16:19:57 16:27:08 26° 273° (W) 16:34:54 435.800 - 435.900 CW/SSB
JAS-2 30 Jul 16:19:59 16:24:30 17° 57° (ENE) 16:28:50 435.800 - 435.900 CW/SSB, 435.910 FM
OPAL 30 Jul 16:35:10 16:40:02 44° 101° (E) 16:44:56 ?
AO-7 30 Jul 16:35:52 16:44:10 66° 255° (WSW) 16:52:30 29.400 - 29.500 MHz
TMSAT-1 30 Jul 16:36:43 16:39:25 14° 271° (W) 16:42:09 436.925 FM
Saudisat 1A 30 Jul 16:46:02 16:50:05 36° 244° (WSW) 16:54:05 436.775 MHz
RS-15 30 Jul 16:53:50 17:02:32 26° 341° (NNW) 17:11:16 29.354 - 29.394 USB, Beacon 29.352 USB
Hamsat 30 Jul 16:59:17 17:02:20 20° 66° (ENE) 17:05:26 145.90 MHz
Uosat F 30 Jul 17:18:34 17:22:24 22° 267° (W) 17:26:15 435.120 FM
KITSAT 1 30 Jul 17:29:11 17:32:48 14° 261° (W) 17:36:26 435.175 FM
JAS-2 30 Jul 18:00:48 18:08:34 78° 74° (ENE) 18:15:48 435.800 - 435.900 CW/SSB, 435.910 FM
OPAL 30 Jul 18:14:37 18:18:40 25° 298° (WNW) 18:22:45 ?
Hamsat 30 Jul 18:34:14 18:38:05 36° 263° (W) 18:41:58 145.90 MHz
AO-7 30 Jul 18:35:55 18:38:28 12° 274° (W) 18:41:01 29.400 - 29.500 MHz
STRAND 1 30 Jul 19:01:16 19:05:56 35° 97° (E) 19:10:34 ?
RS-15 30 Jul 19:11:21 19:19:56 25° 17° (NNE) 19:28:39 29.354 - 29.394 USB, Beacon 29.352 USB
HO-68 30 Jul 19:20:59 19:26:11 22° 56° (NE) 19:31:23 435.675 MHz FM
SO-67 30 Jul 19:23:56 19:27:21 56° 260° (W) 19:30:47 435.3500 MHz FM
JAS-2 30 Jul 19:48:26 19:54:05 22° 269° (W) 19:59:32 435.800 - 435.900 CW/SSB, 435.910 FM
SO-50 30 Jul 20:10:55 20:15:19 36° 48° (NE) 20:19:46 436.795 FM
MaSat-1 30 Jul 20:37:57 20:41:52 46° 109° (ESE) 20:46:24 437.345 MHz
STRAND 1 30 Jul 20:40:39 20:45:01 29° 294° (WNW) 20:49:21 ?
UKube-1 30 Jul 20:56:36 21:00:52 57° 73° (ENE) 21:05:10 145.840 MHz, 145.915 MHz
HO-68 30 Jul 21:05:56 21:13:07 80° 255° (WSW) 21:20:20 435.675 MHz FM
RS-15 30 Jul 21:24:30 21:35:21 58° 48° (NE) 21:46:31 29.354 - 29.394 USB, Beacon 29.352 USB
Oscar 11 30 Jul 21:39:43 21:44:01 82° 76° (ENE) 21:48:21 145.825 FM, Beacon 2401.500 USB
SO-50 30 Jul 21:51:39 21:55:49 30° 246° (WSW) 22:00:01 436.795 FM
UOSAT-12 30 Jul 22:01:34 22:05:55 35° 47° (NE) 22:10:12 437.025 FM, 437.400 FM
FUNcube-1 30 Jul 22:06:35 22:10:48 58° 74° (ENE) 22:14:58 145.950 - 145.970 MHz USB
MaSat-1 30 Jul 22:16:04 22:19:30 22° 312° (NW) 22:23:18 437.345 MHz
UKube-1 30 Jul 22:35:16 22:37:26 14° 269° (W) 22:39:37 145.840 MHz, 145.915 MHz
ISS 30 Jul 22:53:50 22:57:05 52° 141° (SE) 23:00:22 145.800 FM
HO-68 30 Jul 22:58:37 23:01:52 13° 273° (W) 23:05:09 435.675 MHz FM
RS-15 30 Jul 23:37:15 23:47:27 45° 250° (WSW) 23:58:03 29.354 - 29.394 USB, Beacon 29.352 USB
UOSAT-12 30 Jul 23:41:50 23:46:01 32° 246° (WSW) 23:50:07 437.025 FM, 437.400 FM
Sapphire 30 Jul 23:45:12 23:49:54 32° 110° (ESE) 23:54:39 437.095 MHz 1200 baud AX-25 AFSK
FUNcube-1 30 Jul 23:45:46 23:47:33 12° 270° (W) 23:49:20 145.950 - 145.970 MHz USB
PCSat 31 Jul 00:17:36 00:22:56 65° 116° (ESE) 00:28:19 145.825 MHz
ISS 31 Jul 00:30:59 00:33:57 28° 339° (NNW) 00:36:56 145.800 FM
Sapphire 31 Jul 01:28:09 01:33:12 40° 308° (NW) 01:38:18 437.095 MHz 1200 baud AX-25 AFSK
Oscar 19 31 Jul 01:46:45 01:51:25 33° 96° (E) 01:56:04 437.125 CW, 437.150 USB
AO-Echo 31 Jul 01:48:09 01:51:08 16° 90° (E) 01:54:04 ?
PCSat 31 Jul 02:02:36 02:06:49 23° 316° (NW) 02:11:05 145.825 MHz
ISS 31 Jul 02:09:10 02:11:28 17° 359° (N) 02:13:45 145.800 FM
JAS-1B 31 Jul 02:14:08 02:21:35 27° 87° (E) 02:28:08 435.800 - 435.900 CW/SSB
Oscar 16 31 Jul 02:15:12 02:20:21 64° 102° (ESE) 02:25:29 437.025 USB, Beacon 2401.1428
OPAL 31 Jul 02:16:01 02:17:44 12° 55° (NE) 02:19:27 ?
ITAMSAT 1 31 Jul 02:40:35 02:45:35 48° 100° (E) 02:50:33 435.822 SSB
Uribyol 2 31 Jul 02:59:23 03:04:34 76° 103° (ESE) 03:09:43 436.500 FM
AO-27 31 Jul 03:00:16 03:05:28 75° 103° (ESE) 03:10:38 436.795 MHz FM
TMSAT-1 31 Jul 03:09:23 03:13:54 28° 95° (E) 03:18:24 436.925 FM
AO-Echo 31 Jul 03:25:23 03:30:23 60° 287° (WNW) 03:35:10 ?
Oscar 19 31 Jul 03:26:09 03:30:41 32° 293° (WNW) 03:35:12 437.125 CW, 437.150 USB
Gurwin Techsat 1B 31 Jul 03:34:41 03:39:59 65° 102° (ESE) 03:45:14 435.225 FM
ISS 31 Jul 03:46:04 03:49:00 27° 20° (NNE) 03:51:55 145.800 FM
Uosat F 31 Jul 03:47:33 03:49:48 13° 90° (E) 03:52:03 435.120 FM
OPAL 31 Jul 03:50:54 03:55:50 85° 73° (ENE) 04:00:50 ?
Oscar 16 31 Jul 03:55:50 03:59:11 18° 299° (WNW) 04:02:32 437.025 USB, Beacon 2401.1428
JAS-1B 31 Jul 04:03:39 04:12:59 71° 290° (WNW) 04:20:53 435.800 - 435.900 CW/SSB
KITSAT 1 31 Jul 04:09:05 04:12:57 14° 99° (E) 04:16:48 435.175 FM
ITAMSAT 1 31 Jul 04:20:47 04:24:46 23° 297° (WNW) 04:28:43 435.822 SSB
